Location: San Miguel de Conchay
(3.1331°S, 78.4319°W)
Time: 17:20:05
(UTC+00:00)

Daily predictions for brighter satellites

Satellite Brightness Start Highest point End
(mag) Time Altitude Azimuth Time Altitude Azimuth Time Altitude Azimuth
SL-16 R/B 3.2 23:18:34 10° NNE 23:22:57 23° ENE 23:27:20 10° SE
OAO 2 Rocket 4.0 23:18:31 10° NNW 23:23:05 34° NE 23:27:34 10° ESE
Cosmos 2074 Rocket 4.0 23:26:10 10° N 23:32:27 85° E 23:38:45 10° S
ARIANE 5 DEB (SYLDA) 2.7 23:31:24 10° W 23:33:09 86° N 23:37:17 10° E
GMS 1 Rocket B 4.4 23:29:40 10° WSW 23:33:40 73° NNW 23:37:40 10° NE
Ariane H10-3 4.1 13:35:08 10° W 23:35:48 89° N 23:41:43 10° E
Cosmos 1892 Rocket 4.2 23:36:09 10° NNE 23:39:57 31° E 23:43:47 10° SSE
DMSP B5D1-3 4.5 23:35:17 10° NNE 23:40:22 79° ESE 23:45:28 10° S
Spelda 30 4.5 23:29:19 10° W 23:41:42 45° NNW 23:44:44 13° ENE
Cosmos 2184 Rocket 4.1 23:36:01 10° N 23:42:11 81° W 23:48:21 10° S
Helios 1A 4.1 23:42:06 11° NE 23:45:03 22° ESE 23:48:12 10° SSE
ARIANE 5 R/B 2.2 23:40:41 10° W 23:46:11 42° N 23:47:48 17° ENE
CZ-2C R/B 3.3 23:48:32 10° SE 23:51:38 29° E 23:54:44 10° NNE
